STARLINK-34620

Last updated on Sat Aug 16 2025 00:02:05 GMT+0000 (Coordinated Universal Time)

1 64803U 25150P 25227.37750383 .00003207 00000+0 54982-4 0 9991 2 64803 70.0014 315.8557 0001933 253.6815 106.4159 15.52440909 5083
UTC large
Height (km)
Speed (km/s)
/
Latitude / Longitude
Inclination (degrees)
Orbital Period (minutes)
Azimuth
Elevation
Range (km)
Doppler Factor

Next 0 passes for location: London (51.5072 / 0.1276)

Sorry there are no passes over London.